Wind_Speed
16 17 19 20 22 23 23 24 22 22 25 24 22 20 21 21 21 18 16 17 20 22 21 22 19 16 14 11 9 9 6 3 0 2 2 3 9 8 5 4 4 3 1
13 19 20 20 22 24 28 25 25 25 26 25 25 21 21 21 20 19 19 21 21 21 23 20 19 17 14 12 11 8 6 3 2 2 1 1 4 10 12 9 8 4 3
16 16 21 24 23 25 30 30 26 28 27 24 23 20 21 18 19 20 21 22 22 22 21 20 18 17 14 12 10 9 7 5 4 2 3 2 1 6 5 6 7 7 6
15 15 22 25 26 26 23 26 25 26 27 28 24 27 21 18 17 22 25 24 22 22 21 20 19 17 15 13 12 10 7 3 3 3 6 5 3 3 5 4 7 8 11
18 19 22 25 25 24 27 28 26 26 27 29 28 27 20 19 20 22 24 24 24 22 21 21 20 20 18 17 14 9 4 3 5 4 3 5 5 7 8 8 9 9 13
19 19 21 21 22 23 23 27 24 24 25 28 28 28 25 23 19 18 23 23 24 24 23 24 23 22 21 19 14 8 7 5 6 7 5 6 6 7 8 9 13 14 16
17 17 17 21 22 24 27 25 24 24 28 30 29 31 30 28 25 22 27 26 24 27 29 29 27 26 24 18 10 8 8 8 8 8 7 7 7 8 10 12 16 14 14
15 17 19 24 25 27 25 27 26 26 27 33 33 35 35 31 27 29 28 29 32 32 30 28 27 25 19 10 8 8 9 7 8 9 8 6 7 8 11 13 14 10 14
12 16 15 21 24 25 28 36 26 26 24 29 32 30 32 32 33 31 25 27 31 30 28 27 26 19 14 9 8 9 8 9 9 8 9 9 8 10 11 12 13 13 9
7 9 12 18 21 22 23 23 25 27 25 24 25 29 29 33 35 31 29 29 31 29 29 29 24 20 14 9 8 10 10 10 10 10 10 10 10 12 12 13 13 13 15
7 8 10 15 17 17 20 21 23 23 23 23 24 27 25 30 30 29 27 27 29 33 34 29 22 14 10 8 8 11 11 11 12 12 11 12 13 13 13 13 14 15 15
5 5 8 12 14 17 18 21 19 20 20 19 20 22 22 22 22 21 22 25 27 31 26 19 13 9 8 8 13 14 14 13 12 13 12 14 13 13 14 15 16 17 17
4 4 5 9 11 13 14 13 13 14 15 17 16 15 14 14 15 16 18 19 21 17 14 10 4 3 9 11 13 16 16 15 15 14 13 14 13 15 15 16 18 18 17
5 5 4 3 4 6 9 11 10 11 10 10 11 12 13 15 16 19 23 19 19 12 10 9 9 10 11 15 15 17 19 18 17 16 16 14 14 17 18 19 19 19 18
3 2 4 5 8 8 7 7 8 8 11 15 15 15 16 20 26 21 20 15 15 11 6 8 12 12 14 15 18 19 19 18 17 18 18 17 18 20 21 19 19 18 18
7 7 6 7 8 8 10 13 13 13 13 15 16 20 24 20 17 18 17 13 7 4 7 11 14 16 18 22 20 20 18 19 18 19 18 18 20 21 23 23 24 23 21
7 9 9 10 10 11 12 14 16 17 17 18 19 20 20 21 21 15 13 11 5 8 14 13 13 17 18 18 20 21 23 20 21 22 21 21 19 22 20 21 24 25 25
7 9 11 15 15 16 18 20 19 20 22 23 25 25 26 24 17 10 5 4 12 12 10 12 13 15 17 17 19 20 22 21 23 25 25 25 23 20 21 20 21 21 21
8 11 14 16 18 19 21 23 23 26 28 26 27 22 16 11 6 3 8 8 7 9 9 11 14 16 19 19 19 20 23 22 26 27 27 26 25 24 26 22 22 22 22
12 14 17 19 21 20 23 26 26 27 23 23 18 11 6 4 2 1 1 4 6 9 11 14 15 17 21 21 22 23 24 25 28 28 28 30 31 30 29 27 26 22 22
15 16 18 21 21 22 26 26 23 19 15 12 10 9 9 7 5 3 4 6 8 12 15 18 20 21 22 24 24 25 26 23 27 28 28 28 33 34 31 29 28 29 22
18 19 23 22 20 21 24 22 20 14 16 14 13 11 8 7 6 6 7 8 10 12 14 18 18 16 17 20 23 26 26 28 27 29 30 31 33 37 31 27 30 30 28
22 22 25 24 20 18 18 19 12 13 14 13 12 10 8 8 8 8 9 10 11 12 14 16 19 20 20 22 24 26 27 29 29 29 32 35 36 37 36 29 26 27 25
22 23 24 23 20 18 19 17 15 13 12 11 10 8 8 8 9 8 8 9 11 12 14 16 19 22 24 24 26 31 33 32 28 27 31 32 31 33 32 26 24 26 25
21 21 22 21 19 17 17 15 13 10 11 9 8 8 8 9 8 8 9 9 8 11 13 15 18 22 24 27 32 35 39 38 33 32 30 28 24 22 23 22 22 19 22
22 21 20 21 17 16 15 13 12 10 9 8 7 8 7 8 8 9 9 8 8 10 10 14 15 18 21 30 33 35 39 37 28 25 24 24 21 20 17 16 15 16 18
Wind_Direction
198 199 196 198 199 205 204 204 206 202 196 191 187 193 196 203 207 208 209 201 189 185 186 182 177 172 167 157 155 148 140 118 189 251 239 221 208 215 242 271 252 307 125
194 197 201 200 203 207 209 208 210 204 201 201 199 201 201 207 212 205 200 197 192 193 191 188 181 176 170 167 166 162 169 179 207 296 262 249 219 241 256 246 260 242 273
204 201 201 204 203 207 208 212 211 211 208 203 199 198 200 206 202 196 195 195 195 193 191 186 185 179 178 178 177 183 176 194 213 215 311 269 269 302 242 242 241 242 270
214 211 206 209 208 211 209 212 212 211 209 209 205 205 197 195 205 198 197 193 191 191 190 190 188 186 190 185 184 183 184 188 236 200 212 235 260 301 295 278 275 248 270
212 212 212 208 209 205 208 212 216 214 214 214 214 212 210 208 205 200 196 195 192 194 195 195 193 194 190 186 180 177 203 217 245 239 230 253 258 253 264 294 295 282 282
213 218 213 207 204 203 205 212 210 212 211 212 214 218 219 216 203 201 199 197 195 197 201 200 199 195 187 178 174 183 202 190 257 268 249 256 268 281 276 283 292 291 293
212 213 206 200 197 197 205 208 209 212 215 217 218 222 223 226 218 216 208 201 194 195 198 198 194 187 179 178 181 188 197 262 262 248 246 250 255 259 267 274 283 289 297
214 214 211 204 198 196 199 207 208 213 213 219 226 229 228 228 222 227 223 212 206 203 199 196 190 179 175 184 218 214 257 258 247 249 248 239 248 259 267 271 283 289 289
219 221 215 206 201 199 201 210 207 212 212 216 219 223 232 226 230 230 227 214 209 203 194 186 176 176 191 212 209 237 244 241 251 248 240 251 267 275 273 268 265 268 289
229 221 214 209 209 208 206 205 211 214 213 215 216 222 223 231 232 233 224 213 207 196 183 180 183 198 222 222 207 236 228 243 250 243 246 258 277 283 275 270 262 258 270
227 217 212 212 209 204 204 208 210 214 213 216 216 227 225 232 228 226 215 208 197 193 184 188 194 198 211 205 247 244 248 251 246 249 257 268 278 277 270 260 256 260 262
267 215 197 196 197 202 205 208 211 212 217 218 222 225 226 222 211 207 202 197 191 185 192 191 193 179 193 225 237 241 245 250 248 253 254 269 276 270 263 257 257 259 266
246 252 217 203 201 201 202 201 199 205 214 222 218 212 195 184 176 179 177 163 174 180 179 171 197 250 257 241 244 247 247 254 251 246 256 271 274 270 265 260 263 266 260
230 224 208 199 193 189 181 190 192 207 199 183 151 140 138 142 162 162 150 168 169 165 156 177 240 248 256 265 262 251 250 254 248 249 260 267 269 269 267 265 267 266 255
286 192 181 160 157 151 135 130 135 145 144 131 132 134 140 143 147 151 144 139 147 157 171 215 232 250 265 265 262 254 256 251 249 255 263 270 274 273 266 263 267 257 252
42 73 116 128 131 131 127 127 129 132 134 127 126 140 140 137 135 136 137 139 145 157 201 249 262 264 262 267 265 263 261 256 254 259 263 267 276 273 268 265 262 254 255
66 75 83 97 106 110 116 112 114 118 117 117 120 124 127 126 123 116 109 109 157 260 277 268 266 271 275 278 278 277 269 262 259 262 265 267 267 272 262 263 261 260 256
83 79 86 92 98 107 108 112 114 113 111 109 116 122 119 113 107 100 123 196 287 286 268 279 285 287 289 293 291 287 280 268 266 265 263 261 265 262 257 258 257 254 247
94 94 98 102 105 109 116 113 108 106 104 105 108 108 105 107 116 261 284 273 265 282 293 295 296 297 297 300 297 293 287 278 275 270 263 257 260 263 264 251 249 251 254
105 107 107 109 109 113 115 110 108 105 105 112 108 97 72 320 336 151 297 309 307 306 306 306 307 306 304 304 301 298 291 283 283 278 268 262 259 264 265 250 240 246 249
114 113 108 104 106 114 114 106 105 100 106 99 89 89 89 87 70 41 360 335 328 319 315 312 310 308 310 311 312 310 305 288 285 282 276 263 266 262 263 257 242 239 248
114 110 106 102 103 108 104 97 90 97 101 101 98 90 79 64 41 16 359 350 342 332 326 321 320 320 320 317 315 318 314 308 297 288 283 279 269 263 261 251 244 247 249
117 113 108 98 89 91 96 94 89 101 103 99 88 76 62 43 24 13 358 348 345 341 336 332 327 328 329 325 322 319 314 309 301 295 292 288 281 258 264 250 239 242 232
120 118 110 101 92 88 89 91 98 102 98 86 69 53 40 25 17 15 9 360 356 349 343 338 333 330 332 333 334 328 318 308 298 297 295 290 282 269 250 246 244 236 226
124 120 113 107 100 96 90 90 91 90 83 76 61 43 29 19 11 15 11 9 9 1 347 345 338 337 335 335 330 331 326 313 294 295 293 285 273 263 238 229 235 233 230
128 119 115 111 107 100 91 81 77 75 78 70 50 35 24 15 13 10 6 7 5 0 358 347 348 341 336 335 334 334 334 330 312 295 288 277 271 258 231 220 231 234 234
Height
800 805 807 811 815 818 821 822 825 828 832 836 839 842 844 847 849 850 852 855 858 860 863 866 868 871 873 874 878 880 883 882 883 883 881 880 880 879 880 880 879 877 876
797 801 804 808 810 812 815 818 822 824 828 831 834 838 841 844 846 848 851 855 855 858 861 862 866 870 871 873 877 879 881 882 883 882 879 875 878 878 877 876 876 875 873
789 794 798 800 804 807 810 814 817 821 825 829 833 835 839 842 844 846 848 850 853 856 859 861 865 868 870 873 875 877 878 881 880 878 880 875 871 875 874 873 873 872 871
784 787 792 795 797 801 807 810 813 817 821 825 829 830 833 837 838 841 844 847 850 854 857 859 862 864 867 871 874 876 877 877 878 875 875 876 875 872 869 871 870 868 869
777 778 781 787 792 798 801 806 810 814 817 821 825 828 830 833 835 839 842 845 847 851 854 856 858 861 864 867 870 873 875 874 877 874 874 874 872 873 871 864 866 868 868
768 771 776 782 786 791 797 801 805 809 813 817 820 824 827 830 833 835 839 842 844 847 850 853 855 857 860 864 867 866 869 869 871 869 869 870 870 868 869 866 864 863 863
760 763 769 774 779 784 789 794 800 803 807 811 814 819 822 825 828 832 834 836 838 841 843 846 848 853 856 859 862 864 865 864 864 865 866 866 867 867 867 866 861 859 859
755 757 759 765 771 775 783 788 792 797 801 804 808 812 814 819 824 827 829 831 834 836 840 843 848 852 855 859 860 861 861 860 861 862 863 864 864 863 863 862 860 855 853
752 754 758 761 765 771 774 778 785 790 796 798 803 807 811 814 818 821 825 827 829 833 838 843 847 852 851 854 854 857 857 858 858 859 860 862 860 860 859 858 858 855 849
750 753 755 758 761 766 773 777 781 785 790 794 798 802 804 808 812 816 820 821 825 829 835 840 844 845 851 851 851 852 854 855 856 857 857 858 857 857 856 854 853 851 849
747 749 752 755 760 764 769 773 778 783 787 790 793 797 800 803 806 811 816 820 822 825 829 833 839 843 846 849 850 853 855 854 854 854 854 854 854 852 851 850 849 847 846
742 745 749 753 756 760 765 769 774 779 783 786 791 795 797 799 803 808 814 818 821 826 830 837 839 840 844 845 846 848 850 850 850 851 850 849 848 846 846 845 844 842 841
745 746 748 751 755 758 763 768 772 776 779 783 786 790 793 798 803 809 814 819 826 830 832 836 843 844 844 842 842 843 846 845 845 845 845 844 842 841 841 840 838 836 835
742 744 749 753 756 759 762 765 769 774 777 782 786 793 796 801 805 809 809 822 824 831 832 833 838 841 841 842 841 841 840 840 840 839 838 838 836 836 835 834 832 831 829
742 744 747 752 755 759 763 766 770 774 779 784 790 794 798 802 807 813 816 823 826 827 832 834 836 837 838 837 837 836 835 835 835 833 832 831 830 828 828 827 826 825 824
746 746 748 752 757 761 765 769 772 776 781 785 790 795 799 804 810 815 820 820 827 830 831 833 834 832 832 832 833 832 831 830 828 827 826 824 822 821 820 819 818 819 817
752 753 754 756 760 764 767 771 775 779 784 789 795 799 804 809 813 819 823 825 829 829 830 829 830 829 828 828 827 826 825 823 822 820 818 817 815 814 813 812 811 810 809
756 758 759 761 765 768 772 776 780 784 788 793 799 803 808 812 818 820 823 825 826 826 826 825 825 824 823 823 822 820 818 817 814 812 811 809 807 806 806 805 804 803 802
762 763 764 766 769 772 777 780 785 789 793 799 804 809 813 815 817 819 820 821 822 823 822 822 821 820 818 818 817 815 812 809 806 804 801 799 798 797 797 797 796 795 794
764 765 767 770 773 778 781 784 789 794 800 804 807 810 811 814 815 817 818 819 819 819 819 818 817 815 814 813 811 809 806 801 798 794 791 788 788 788 787 788 787 786 786
768 770 772 775 779 783 786 789 794 799 803 806 808 810 812 814 816 817 817 817 817 816 815 813 812 810 809 806 804 802 799 795 790 786 781 779 776 776 776 777 777 775 779
772 774 776 781 786 789 790 794 799 803 804 806 809 811 813 814 815 816 816 815 814 813 811 809 807 806 804 801 798 795 792 789 786 779 774 770 768 765 765 766 765 768 771
774 778 780 784 790 793 795 798 803 805 806 808 811 812 814 815 815 815 814 814 813 811 810 807 804 801 800 797 793 789 786 782 778 772 767 762 759 756 754 753 755 759 762
777 781 785 789 794 797 799 802 805 807 808 810 812 813 814 814 814 814 814 813 812 811 809 806 803 799 796 793 789 784 778 773 768 763 757 753 750 748 745 745 747 750 752
780 783 787 793 798 801 803 805 807 809 810 812 813 814 814 814 814 814 813 812 811 810 808 806 803 798 794 791 788 781 772 763 757 754 749 743 740 738 737 737 740 742 745
781 786 790 794 800 803 805 808 809 810 812 813 814 814 814 813 813 812 811 811 810 808 806 804 802 799 795 788 781 773 764 754 746 744 739 734 732 730 730 730 734 736 738